Lobo

Go HERE for most recent data if this page is not up to date.

Jump to table bottom
Date/Time Temp deg F RH % 24 Hr Snow (in) Snow Depth (in) H2O (in)
01/28 00:00 13.3 67 2.0 50.1 0.00
01/27 23:00 13.4 65 2.0 50.1 0.00
01/27 22:00 13.9 70 2.0 50.0 0.00
01/27 21:00 15.1 74 2.0 50.1 0.00
01/27 20:00 15.9 83 1.8 50.3 0.00
01/27 19:00 16.4 82 1.9 50.2 0.00
01/27 18:00 16.6 85 1.8 50.1 0.03
01/27 17:00 17.2 85 0.8 47.6 0.06
01/27 16:00 19.0 81 2.9 48.1 0.00
01/27 15:00 19.8 66 2.8 48.0 0.00
01/27 14:00 20.8 65 2.8 48.0 0.00
01/27 13:00 20.4 62 3.0 48.3 0.00
01/27 12:00 18.9 67 3.1 48.4 0.00
01/27 11:00 17.8 73 2.9 47.9 0.01
01/27 10:00 16.7 80 3.0 48.6 0.00
01/27 09:00 17.1 83 3.1 48.7 0.00
01/27 08:00 17.7 86 3.2 48.9 0.00
01/27 07:00 18.3 76 3.2 49.0 0.03
01/27 06:00 18.8 90 2.9 47.9 0.04
01/27 05:00 18.9 88 0.8 47.0 0.04
01/27 04:00 19.8 88 1.2 46.8 0.01
01/27 03:00 21.4 87 1.1 46.9 0.01
01/27 02:00 22.5 90 1.0 46.7 0.02
01/27 01:00 23.7 92 0.7 46.3 0.02
01/27 00:00 24.1 94 0.5 46.5 0.01
.